Вернуться в каталог

IRIDIUM 33 DEB

АктивенPO
NORAD 46435·DEBRIS·🇺🇸 United States

Запущен Sep 14, 1997 с Baikonur Cosmodrome

Loading…

Ближайшие Пролёты (ближайшие 24 часа)

TLE

УстаревающийSource: Space-Track

Эпоха: Sep 11, 2026, 06:25 UTC

1 46435U 97051ABN 26254.26801103  .00009581  00000-0  23602-2 0  9992
2 46435  86.2719  75.5009 0202237 100.0801  23.1832 14.40414166118324

Отслеживайте IRIDIUM 33 DEB в реальном времени с AllMySat

Download on the App Store